Terminal Aerodrome Forecast
Issued by NWS North Platte, NE

Home | Current Version | Previous Version | Graphics & Text | Print | Product List | Glossary On
Versions: 1 2 3 4 5 6 7 8 9 10 11 12 13 14 15 16 17 18 19 20 21
941
FTUS43 KLBF 252046 AAA
TAFVTN
TAF AMD
KVTN 252046Z 2521/2618 01013KT P6SM VCSH BKN012 OVC020
     FM260000 35014G20KT P6SM VCSH OVC008
     FM260600 33014G20KT P6SM OVC008
     FM261500 32015G22KT P6SM BKN015=

USA.gov is the U.S. government's official web portal to all federal, state and local government web resources and services.